TimeEDT,TemperatureF,Dew PointF,Humidity,Sea Level PressureIn,VisibilityMPH,Wind Direction,Wind SpeedMPH,Gust SpeedMPH,PrecipitationIn,Events,Conditions,WindDirDegrees,DateUTC
12:56 AM,75.0,71.1,87,29.86,10.0,SSW,6.9,-,N/A,,Partly Cloudy,210,2012-09-19 04:56:00
1:56 AM,73.9,70.0,87,29.88,10.0,SW,8.1,-,N/A,,Scattered Clouds,230,2012-09-19 05:56:00
4:56 AM,71.1,68.0,90,29.88,10.0,WSW,3.5,-,N/A,,Scattered Clouds,240,2012-09-19 08:56:00
5:56 AM,70.0,68.0,93,29.90,10.0,WSW,3.5,-,N/A,,Partly Cloudy,240,2012-09-19 09:56:00
6:56 AM,70.0,68.0,93,29.91,10.0,WNW,4.6,-,N/A,,Overcast,300,2012-09-19 10:56:00
7:08 AM,69.8,68.0,94,29.91,10.0,WNW,5.8,-,N/A,,Overcast,300,2012-09-19 11:08:00
7:28 AM,71.6,68.0,88,29.92,10.0,NW,5.8,-,N/A,,Mostly Cloudy,310,2012-09-19 11:28:00
7:56 AM,70.0,66.0,87,29.94,10.0,NNW,10.4,-,N/A,,Clear,330,2012-09-19 11:56:00
9:56 AM,71.1,66.0,84,29.99,10.0,NNE,15.0,-,N/A,,Overcast,30,2012-09-19 13:56:00
10:56 AM,69.1,63.0,81,30.01,10.0,NNE,15.0,21.9,N/A,,Overcast,30,2012-09-19 14:56:00
11:34 AM,71.6,62.6,73,30.01,10.0,North,11.5,-,N/A,,Overcast,10,2012-09-19 15:34:00
12:56 PM,72.0,62.1,71,30.03,10.0,NNE,12.7,-,N/A,,Overcast,30,2012-09-19 16:56:00
2:56 PM,71.1,61.0,70,30.03,10.0,NNE,10.4,-,N/A,,Overcast,30,2012-09-19 18:56:00
3:56 PM,70.0,60.1,71,30.05,10.0,North,11.5,-,N/A,,Overcast,360,2012-09-19 19:56:00
4:38 PM,69.8,59.0,68,30.05,10.0,North,12.7,-,N/A,,Overcast,10,2012-09-19 20:38:00
4:56 PM,70.0,59.0,68,30.05,10.0,NNE,12.7,-,N/A,,Overcast,20,2012-09-19 20:56:00
5:56 PM,69.1,57.9,68,30.07,10.0,North,12.7,-,N/A,,Overcast,10,2012-09-19 21:56:00
6:56 PM,66.9,57.9,73,30.07,10.0,North,8.1,-,N/A,,Mostly Cloudy,10,2012-09-19 22:56:00
7:56 PM,66.0,60.1,81,30.08,10.0,North,9.2,-,N/A,,Clear,10,2012-09-19 23:56:00
8:56 PM,64.9,57.0,75,30.09,10.0,North,10.4,-,N/A,,Partly Cloudy,10,2012-09-20 00:56:00
9:56 PM,64.0,57.0,78,30.10,10.0,NNE,9.2,-,N/A,,Scattered Clouds,30,2012-09-20 01:56:00
10:56 PM,64.0,57.0,78,30.11,10.0,NNE,10.4,-,N/A,,Clear,20,2012-09-20 02:56:00
11:56 PM,64.0,57.0,78,30.11,10.0,North,6.9,-,N/A,,Overcast,350,2012-09-20 03:56:00